[[{"header":{"parameterUnit":"m.s-1","parameterCategory":1,"la1":30.2991,"la2":30.254,"lo1":-89.0895,"lo2":-89.0444,"dy":0.0017,"dx":0.0017,"nx":28,"ny":28,"refTime":"2025-09-13T03:00:00:Z","depth":0,"parameterNumber":2,"parameterNumberName":"U-component_of_WINDS"},"data":[0,0,0,0,0,0,0,0,0,0,0,0,0,0,0,0,0,0,0,0,0,0,0,0,0,0,0,0,0,0,0,0,0,0,0,0,0,0,0,0,0,0,0,0,0,0,0,0,0,0,0,0,0,0,0,0,0,0,-0.2658,-0.2658,0,-0.2626,-0.2625,-0.2625,-0.2591,-0.259,-0.259,-0.2589,-0.2557,-0.2557,-0.2556,0,0,0,0,0,0,0,0,0,0,0,0,0,-0.2692,-0.2691,-0.2658,-0.2658,-0.2657,-0.2626,-0.2625,-0.2625,-0.2591,-0.259,-0.259,-0.2589,-0.2557,-0.2557,-0.2556,0,0,0,0,0,0,0,0,0,0,0,0,0,-0.267,-0.2691,-0.2658,-0.2637,-0.2634,-0.2626,-0.2625,-0.2625,-0.2591,-0.259,-0.259,-0.2589,-0.2558,-0.2557,-0.2556,-0.2567,0,0,-0.2554,-0.2554,0,0,0,0,0,0,0,0,-0.2671,-0.2669,-0.264,-0.2638,-0.2635,-0.2612,-0.2625,-0.2605,-0.2591,-0.2608,-0.2589,-0.2589,-0.2576,-0.2574,-0.2569,-0.2565,-0.2564,-0.2554,-0.2554,-0.2554,-0.2554,0,0,0,0,0,0,0,-0.2673,-0.267,-0.2645,-0.264,-0.2637,-0.2629,-0.2625,-0.2621,-0.2596,-0.2606,-0.2603,-0.26,-0.2575,-0.257,-0.2568,-0.2564,-0.2554,-0.2554,-0.2553,-0.2553,-0.2567,-0.2568,0,0,0,0,0,0,-0.2678,-0.2672,-0.2646,-0.2644,-0.2652,-0.2629,-0.2625,-0.262,-0.2596,-0.2592,-0.2601,-0.2599,-0.2571,-0.2569,-0.2567,-0.2579,-0.2554,-0.2553,-0.2553,-0.2567,-0.2568,-0.2568,0,0,0,0,0,0,-0.2678,-0.2676,-0.2648,-0.2657,-0.2653,-0.2629,-0.2624,-0.262,-0.2615,-0.2592,-0.2588,-0.2601,-0.2571,-0.2568,-0.2567,-0.2577,-0.2553,-0.2552,-0.2566,-0.2567,-0.2568,-0.2602,0,0,0,0,0,0,-0.268,-0.2676,-0.268,-0.2658,-0.2653,-0.2648,-0.2625,-0.262,-0.2614,-0.2611,-0.2591,-0.2587,-0.257,-0.2568,-0.2567,-0.2576,-0.2552,-0.2565,-0.2566,-0.2568,-0.2599,-0.2604,-0.2607,0,0,0,0,0,-0.2681,-0.269,-0.268,-0.2677,-0.2657,-0.2649,-0.2646,-0.2626,-0.2615,-0.2619,-0.2604,-0.2587,-0.2576,-0.2569,-0.2566,-0.2575,-0.2564,-0.2566,-0.2568,-0.2598,-0.2603,-0.2607,0,0,0,0,0,0,-0.2715,-0.2687,-0.2675,-0.2678,-0.2666,-0.2643,-0.2647,-0.2632,-0.2624,-0.2621,-0.2597,-0.2593,-0.2595,-0.2585,-0.2577,-0.2585,-0.2568,-0.2569,-0.2592,-0.2596,-0.26,-0.2603,-0.2551,0,0,0,0,0,-0.2722,-0.2718,-0.2694,-0.2699,-0.2694,-0.2672,-0.2667,-0.2653,-0.264,-0.2635,-0.262,-0.2608,-0.2602,-0.2598,-0.2591,-0.2597,-0.2593,-0.2603,-0.2606,-0.261,-0.2612,-0.2615,-0.2619,-0.2574,-0.2574,-0.2574,0,0,-0.2738,-0.2723,-0.2722,-0.2705,-0.2694,-0.2691,-0.2667,-0.2665,-0.2662,-0.2634,-0.2633,-0.2622,-0.2607,-0.261,-0.2611,-0.2602,-0.2623,-0.2612,-0.2615,-0.2615,-0.2617,-0.2622,-0.2625,-0.2575,-0.2575,-0.2575,0,0,-0.2766,-0.2753,-0.2756,-0.2746,-0.2729,-0.2715,-0.2715,-0.2695,-0.2686,-0.2684,-0.2664,-0.266,-0.265,-0.264,-0.2634,-0.2658,-0.2643,-0.2657,-0.2677,-0.2681,-0.2685,-0.2688,-0.2697,-0.2701,-0.2658,-0.2658,-0.2658,0,-0.2788,-0.2782,-0.276,-0.2759,-0.2752,-0.2727,-0.273,-0.2721,-0.2703,-0.27,-0.2689,-0.2676,-0.2664,-0.2665,-0.2671,-0.2667,-0.2667,-0.2659,-0.2686,-0.2689,-0.2691,-0.27,-0.2704,-0.266,-0.266,-0.266,-0.266,0,-0.2811,-0.2807,-0.2811,-0.2794,-0.2789,-0.279,-0.2768,-0.2765,-0.2751,-0.2737,-0.2736,-0.2721,-0.2711,-0.271,-0.2696,-0.2709,-0.2704,-0.269,-0.2673,-0.2698,-0.2706,-0.2709,-0.2663,-0.2662,-0.2662,-0.2661,0,0,-0.286,-0.283,-0.2833,-0.2825,-0.2805,-0.2802,-0.2802,-0.2791,-0.279,-0.2778,-0.2778,-0.277,-0.2757,-0.275,-0.2735,-0.2738,-0.276,-0.2724,-0.2723,-0.2732,-0.2774,-0.2785,-0.279,-0.2749,-0.275,-0.275,-0.2776,0,-0.2885,-0.2883,-0.2863,-0.2867,-0.2863,-0.2839,-0.2839,-0.2827,-0.2814,-0.281,-0.2796,-0.2791,-0.2773,-0.2769,-0.2771,-0.2757,-0.2768,-0.2754,-0.275,-0.275,-0.2755,-0.2794,-0.2806,-0.2831,-0.2779,-0.2779,-0.2779,0,-0.2914,-0.2904,-0.2908,-0.2888,-0.2886,-0.2886,-0.2876,-0.2871,-0.2857,-0.2848,-0.284,-0.2823,-0.2823,-0.2805,-0.2804,-0.2796,-0.2792,-0.2785,-0.2785,-0.2785,-0.2767,-0.2796,-0.2838,-0.2842,-0.2784,-0.2784,-0.2783,0,-0.2951,-0.2938,-0.2939,-0.2933,-0.291,-0.2911,-0.2902,-0.2887,-0.2882,-0.2873,-0.2869,-0.286,-0.2855,-0.2849,-0.283,-0.2819,-0.2831,-0.2812,-0.2824,-0.2825,-0.2829,-0.2829,-0.2873,-0.2825,-0.2825,-0.2825,-0.2825,0,-0.2982,-0.2985,-0.2955,-0.2956,-0.296,-0.2937,-0.2941,-0.2929,-0.2916,-0.2914,-0.2892,-0.2891,-0.2866,-0.2862,-0.2847,-0.2849,-0.2847,-0.284,-0.2836,-0.2842,-0.2844,-0.2841,-0.2839,-0.2826,-0.2826,-0.2825,-0.2825,0,-0.3024,-0.3004,-0.3003,-0.2981,-0.2976,-0.2979,-0.2961,-0.2961,-0.2946,-0.2945,-0.2943,-0.2921,-0.2915,-0.2895,-0.2885,-0.2875,-0.2882,-0.2874,-0.2887,-0.2885,-0.2898,-0.2898,-0.2942,-0.2947,-0.2896,-0.2896,-0.2897,0,-0.3045,-0.3048,-0.3026,-0.3023,-0.3014,-0.301,-0.3005,-0.2982,-0.2978,-0.2962,-0.2964,-0.2957,-0.295,-0.2942,-0.2926,-0.2918,-0.291,-0.2926,-0.2909,-0.2915,-0.2912,-0.2912,-0.2913,-0.293,-0.2931,-0.2932,-0.2932,0,-0.3086,-0.3076,-0.307,-0.306,-0.3055,-0.3046,-0.3036,-0.3035,-0.3009,-0.3006,-0.3,-0.2994,-0.2984,-0.2977,-0.2967,-0.2957,-0.2941,-0.2937,-0.294,-0.2947,-0.2955,-0.2952,-0.2899,-0.2937,-0.2936,-0.2936,-0.2936,-0.2936,-0.312,-0.3121,-0.3106,-0.3099,-0.3089,-0.308,-0.3079,-0.3065,-0.3059,-0.3049,-0.3036,-0.3031,-0.3018,-0.3002,-0.2993,-0.299,-0.2981,-0.2985,-0.2986,-0.2987,-0.2991,-0.2955,-0.2988,-0.2988,-0.2988,-0.2988,-0.2987,0,-0.3161,-0.3149,-0.3144,-0.313,-0.3125,-0.3109,-0.3098,-0.3095,-0.3091,-0.308,-0.3073,-0.3067,-0.306,-0.3043,-0.3034,-0.3035,-0.3028,-0.3034,-0.3034,-0.3033,-0.2999,-0.2998,-0.304,-0.304,-0.304,-0.304,-0.304,-0.304,-0.3181,-0.3183,-0.3171,-0.3167,-0.3156,-0.3151,-0.3146,-0.3138,-0.3129,-0.3122,-0.3117,-0.3105,-0.3091,-0.3082,-0.3075,-0.307,-0.3069,-0.3078,-0.3071,-0.304,-0.3035,-0.303,-0.3029,-0.3078,-0.3078,-0.3105,-0.3105,-0.3106]},{"header":{"parameterUnit":"m.s-1","parameterCategory":1,"la1":30.2991,"la2":30.254,"lo1":-89.0895,"lo2":-89.0444,"dy":0.0017,"dx":0.0017,"nx":28,"ny":28,"refTime":"2025-09-13T03:00:00:Z","depth":0,"parameterNumber":3,"parameterNumberName":"V-component_of_WINDS"},"data":[0,0,0,0,0,0,0,0,0,0,0,0,0,0,0,0,0,0,0,0,0,0,0,0,0,0,0,0,0,0,0,0,0,0,0,0,0,0,0,0,0,0,0,0,0,0,0,0,0,0,0,0,0,0,0,0,0,0,1.5185,1.5185,0,1.5121,1.5121,1.512,1.5073,1.5072,1.5072,1.5071,1.5003,1.5001,1.5,0,0,0,0,0,0,0,0,0,0,0,0,0,1.5262,1.5261,1.5185,1.5184,1.5184,1.5121,1.5121,1.512,1.5073,1.5072,1.5072,1.5071,1.5003,1.5001,1.5,0,0,0,0,0,0,0,0,0,0,0,0,0,1.5217,1.5261,1.5185,1.5153,1.5149,1.5122,1.5121,1.5119,1.5073,1.5072,1.5071,1.5071,1.5004,1.5002,1.4999,1.4998,0,0,1.4993,1.4992,0,0,0,0,0,0,0,0,1.5219,1.5214,1.5158,1.5155,1.5151,1.5104,1.5123,1.5079,1.5073,1.5102,1.5071,1.5071,1.5037,1.5032,1.5021,1.4995,1.4992,1.4993,1.4991,1.499,1.499,0,0,0,0,0,0,0,1.5223,1.5216,1.516,1.5158,1.5153,1.514,1.5133,1.5114,1.5073,1.5099,1.5096,1.5089,1.5035,1.5023,1.5019,1.4991,1.4993,1.4991,1.4989,1.4988,1.4959,1.4959,0,0,0,0,0,0,1.5231,1.5219,1.5162,1.5158,1.5184,1.5139,1.5131,1.512,1.5073,1.5066,1.5089,1.5087,1.5027,1.5022,1.5016,1.5011,1.499,1.4988,1.4987,1.4958,1.4959,1.4959,0,0,0,0,0,0,1.5233,1.5227,1.5164,1.5188,1.5179,1.5138,1.5126,1.5119,1.5108,1.5066,1.5058,1.5086,1.5027,1.502,1.5003,1.5008,1.4987,1.4985,1.4958,1.4958,1.4959,1.5001,0,0,0,0,0,0,1.5236,1.5228,1.5228,1.5188,1.5178,1.5153,1.5127,1.5118,1.5104,1.51,1.506,1.5053,1.5026,1.5006,1.5001,1.5005,1.4984,1.4957,1.4958,1.4959,1.4999,1.5003,1.5006,0,0,0,0,0,1.5239,1.5242,1.5228,1.5221,1.5177,1.5154,1.5148,1.5117,1.5105,1.5104,1.5077,1.5054,1.5008,1.5005,1.4998,1.5002,1.4957,1.4958,1.4959,1.4997,1.5002,1.5006,0,0,0,0,0,0,1.5282,1.5236,1.522,1.5211,1.5187,1.5146,1.5144,1.5123,1.5101,1.5098,1.506,1.5051,1.5038,1.5018,1.5015,1.4997,1.4979,1.4979,1.5011,1.5015,1.5019,1.5024,1.4982,0,0,0,0,0,1.5291,1.5277,1.5237,1.5232,1.5221,1.5185,1.5173,1.5152,1.5125,1.5114,1.5086,1.5059,1.5038,1.5026,1.5005,1.4996,1.4985,1.4994,1.4998,1.5001,1.5002,1.4994,1.4997,1.4963,1.4963,1.4963,0,0,1.5309,1.5281,1.5275,1.524,1.5219,1.5204,1.5176,1.5162,1.515,1.5111,1.5094,1.5072,1.504,1.5027,1.502,1.501,1.5009,1.5003,1.5006,1.5004,1.4995,1.4998,1.5001,1.4964,1.4964,1.4964,0,0,1.5333,1.5311,1.5305,1.5284,1.5252,1.5228,1.5227,1.5189,1.5173,1.5155,1.5125,1.511,1.5076,1.5054,1.5038,1.5053,1.503,1.5047,1.5066,1.5059,1.5062,1.5064,1.5068,1.507,1.5047,1.5047,1.5047,0,1.5358,1.5336,1.5304,1.5291,1.5276,1.5241,1.5233,1.5214,1.5177,1.5166,1.5156,1.5112,1.5088,1.5068,1.5072,1.5061,1.5056,1.5051,1.5064,1.5066,1.5068,1.5071,1.5073,1.5049,1.5049,1.5049,1.5049,0,1.5368,1.5353,1.5351,1.5316,1.5301,1.5291,1.5256,1.5244,1.5224,1.52,1.5181,1.5151,1.5123,1.5117,1.5096,1.5094,1.5088,1.5072,1.5053,1.5074,1.5076,1.5077,1.5052,1.5052,1.5051,1.505,0,0,1.5418,1.5366,1.5366,1.5349,1.5311,1.5298,1.5285,1.5259,1.5249,1.5224,1.5211,1.5183,1.5167,1.5149,1.5125,1.5119,1.5131,1.5103,1.5101,1.5108,1.5125,1.5138,1.514,1.5117,1.5117,1.5117,1.5128,0,1.5436,1.5412,1.5383,1.5369,1.5354,1.532,1.5308,1.5283,1.526,1.5243,1.5217,1.5197,1.5178,1.5167,1.5159,1.5132,1.5134,1.513,1.5103,1.5102,1.5112,1.5141,1.5155,1.5167,1.5129,1.5129,1.5129,0,1.5453,1.5431,1.5416,1.5378,1.5371,1.5361,1.5333,1.5318,1.5288,1.5271,1.5251,1.5226,1.5209,1.5193,1.5169,1.5167,1.5154,1.5138,1.5138,1.5134,1.5117,1.5137,1.517,1.5171,1.513,1.513,1.513,0,1.549,1.5456,1.5442,1.5429,1.5386,1.538,1.5361,1.533,1.5315,1.5291,1.528,1.5254,1.5239,1.5218,1.5186,1.5178,1.5164,1.5146,1.5149,1.515,1.5148,1.5148,1.5178,1.5141,1.5141,1.5141,1.5141,0,1.5513,1.5504,1.5458,1.545,1.5439,1.5405,1.5394,1.5372,1.5345,1.5331,1.5299,1.5286,1.5244,1.5226,1.52,1.5183,1.5177,1.5162,1.5155,1.5164,1.5166,1.5155,1.5153,1.5141,1.5141,1.5141,1.5141,0,1.5552,1.5521,1.5504,1.5464,1.5453,1.5447,1.5412,1.5401,1.5377,1.5359,1.5352,1.5313,1.5289,1.5255,1.5221,1.5203,1.519,1.5179,1.52,1.5196,1.5201,1.5201,1.5224,1.5224,1.5188,1.5188,1.5189,0,1.5568,1.5561,1.552,1.5509,1.5491,1.5473,1.5458,1.5423,1.5408,1.5373,1.5367,1.5341,1.5318,1.5281,1.5249,1.5222,1.521,1.522,1.5206,1.5215,1.5209,1.521,1.5208,1.5223,1.5224,1.5224,1.5225,0,1.56,1.5585,1.5565,1.5539,1.5522,1.55,1.5477,1.5469,1.5428,1.5413,1.5389,1.5371,1.5336,1.531,1.5279,1.5258,1.5234,1.523,1.5229,1.5238,1.525,1.5243,1.5209,1.5229,1.5229,1.5228,1.5228,1.5228,1.5627,1.5619,1.5589,1.5567,1.5546,1.5524,1.5513,1.5486,1.5466,1.5436,1.5416,1.5392,1.5361,1.5316,1.5296,1.5276,1.5266,1.5265,1.5265,1.5265,1.5268,1.5254,1.527,1.527,1.527,1.527,1.527,0,1.5657,1.5635,1.5616,1.5584,1.5567,1.5547,1.5519,1.5506,1.5486,1.5459,1.5438,1.5409,1.5383,1.5349,1.532,1.5311,1.5299,1.5305,1.5305,1.53,1.5279,1.5282,1.5314,1.5314,1.5314,1.5314,1.5314,1.5314,1.567,1.5655,1.5636,1.5609,1.5587,1.5565,1.555,1.553,1.5508,1.5478,1.5457,1.5435,1.5404,1.5373,1.5348,1.5338,1.5329,1.5338,1.5324,1.5305,1.5301,1.5298,1.53,1.5336,1.5336,1.5347,1.5347,1.5347]}]]